DW6062 Weather Reports


Display with metric or nautical units.
time (UTC)temp
F
wind
direction
speed
MPH
gust
MPH
rain 1hr
in
rain 24hr
in
rain mn
in
humidity
%
barometer
mb
20260903051543 79 210 2.0 2.0 0.00 0.00 0.00 79 1054.3
20260903051202 79 211 2.0 9.0 0.00 0.00 0.00 78 1016.4
20260903051039 79 196 3.0 3.0 0.00 0.00 0.00 78 1054.1
20260903050703 79 211 3.0 9.0 0.00 0.00 0.00 78 1016.4
20260903050537 79 203 2.0 3.0 0.00 0.00 0.00 78 1054.3
20260903050202 79 169 3.0 9.0 0.00 0.00 0.00 78 1016.5
20260903050033 79 165 3.0 3.0 0.00 0.00 0.00 78 1054.3
20260903045702 79 229 3.0 8.0 0.00 0.00 0.00 78 1016.2
20260903045532 79 237 5.0 8.0 0.00 0.00 0.00 78 1054.0
20260903045202 80 205 3.0 6.0 0.00 0.00 0.00 78 1016.3
20260903045029 80 201 3.0 3.0 0.00 0.00 0.00 78 1054.1
20260903044703 80 201 3.0 10.0 0.00 0.00 0.00 78 1016.2
20260903044525 80 188 3.0 6.0 0.00 0.00 0.00 78 1053.9
20260903044202 80 194 3.0 8.0 0.00 0.00 0.00 77 1016.2
20260903044020 80 200 3.0 5.0 0.00 0.00 0.00 77 1054.0
20260903043702 80 221 3.0 7.0 0.00 0.00 0.00 77 1016.2
20260903043516 80 222 2.0 5.0 0.00 0.00 0.00 77 1054.0
20260903043203 80 194 2.0 8.0 0.00 0.00 0.00 77 1016.1
20260903043015 80 176 2.0 3.0 0.00 0.00 0.00 77 1053.8
20260903042510 80 213 2.0 3.0 0.00 0.00 0.00 77 1053.9
20260903042006 80 220 5.0 6.0 0.00 0.00 0.00 77 1053.8
20260903041502 80 208 6.0 8.0 0.00 0.00 0.00 76 1053.8
20260903040957 80 222 9.0 15.0 0.00 0.00 0.00 76 1054.0
20260903040456 81 224 4.0 6.0 0.00 0.00 0.00 76 1053.8
20260903035953 81 205 3.0 3.0 0.00 0.00 0.00 76 1053.6
20260903035448 81 200 5.0 7.0 0.00 0.00 0.00 76 1053.7
20260903034943 81 196 4.0 5.0 0.00 0.00 0.00 76 1053.2
20260903034438 81 183 3.0 3.0 0.00 0.00 0.00 75 1053.3
20260903033933 81 233 3.0 6.0 0.00 0.00 0.00 75 1053.2
20260903033428 81 232 7.0 11.0 0.00 0.00 0.00 75 1053.3
20260903032929 81 206 3.0 5.0 0.00 0.00 0.00 75 1053.3
20260903032424 81 188 5.0 6.0 0.00 0.00 0.00 75 1053.5
20260903031919 81 187 7.0 8.0 0.00 0.00 0.00 75 1053.5
20260903031703 81 220 9.0 13.0 0.00 0.00 0.00 75 1015.9
20260903031419 81 190 10.0 13.0 0.00 0.00 0.00 75 1053.9
20260903031202 81 228 6.0 8.0 0.00 0.00 0.00 75 1015.9
20260903030914 81 217 6.0 8.0 0.00 0.00 0.00 75 1053.9
20260903030702 81 225 6.0 14.0 0.00 0.00 0.00 75 1016.0
20260903030410 81 214 8.0 14.0 0.00 0.00 0.00 75 1053.7
20260903025906 81 213 2.0 3.0 0.00 0.00 0.00 75 1054.0
20260903025401 81 211 3.0 5.0 0.00 0.00 0.00 75 1054.0
20260903025203 81 175 5.0 12.0 0.00 0.00 0.00 75 1016.2
20260903024856 81 211 2.0 5.0 0.00 0.00 0.00 75 1054.1
20260903024702 81 190 7.0 10.0 0.00 0.00 0.00 75 1016.4
20260903024356 81 205 7.0 9.0 0.00 0.00 0.00 75 1054.2
20260903024202 81 199 1.0 12.0 0.00 0.00 0.00 75 1016.4
20260903023851 81 224 6.0 11.0 0.00 0.00 0.00 75 1054.3
20260903023703 81 188 2.0 12.0 0.00 0.00 0.00 75 1016.6
20260903023347 81 201 5.0 10.0 0.00 0.00 0.00 75 1054.1
20260903023202 81 205 4.0 10.0 0.00 0.00 0.00 75 1016.6
20260903022842 81 202 3.0 3.0 0.00 0.00 0.00 74 1054.3
20260903022703 81 187 5.0 10.0 0.00 0.00 0.00 74 1016.5
20260903022341 81 210 4.0 6.0 0.00 0.00 0.00 74 1054.3
20260903022203 81 215 3.0 6.0 0.00 0.00 0.00 74 1016.6
20260903021839 81 183 1.0 2.0 0.00 0.00 0.00 74 1054.1
20260903021703 81 204 1.0 3.0 0.00 0.00 0.00 74 1016.7
20260903021336 81 201 2.0 2.0 0.00 0.00 0.00 74 1054.2
20260903020835 82 184 0.0 1.0 0.00 0.00 0.00 74 1054.4
20260903020330 82 201 3.0 5.0 0.00 0.00 0.00 74 1054.2
20260903020203 82 204 2.0 5.0 0.00 0.00 0.00 74 1016.5
20260903015825 82 190 0.0 1.0 0.00 0.00 0.00 73 1054.4
20260903015703 82 179 2.0 5.0 0.00 0.00 0.00 73 1016.6
20260903015321 82 197 3.0 5.0 0.00 0.00 0.00 73 1054.4
20260903014816 81 176 1.0 2.0 0.00 0.00 0.00 73 1054.3
20260903014703 81 196 1.0 2.0 0.00 0.00 0.00 73 1016.6
20260903014316 81 172 2.0 2.0 0.00 0.00 0.00 73 1054.4
20260903014203 81 200 1.0 5.0 0.00 0.00 0.00 73 1016.6
20260903013811 81 185 0.0 1.0 0.00 0.00 0.00 73 1054.4
20260903013703 81 193 1.0 5.0 0.00 0.00 0.00 73 1016.4
20260903013310 82 169 1.0 1.0 0.00 0.00 0.00 73 1054.3
20260903013203 82 221 2.0 2.0 0.00 0.00 0.00 73 1016.6
20260903012809 82 198 1.0 1.0 0.00 0.00 0.00 73 1054.3
20260903012306 82 198 1.0 1.0 0.00 0.00 0.00 73 1054.0
20260903012202 82 203 1.0 3.0 0.00 0.00 0.00 73 1016.5
20260903011803 82 189 2.0 2.0 0.00 0.00 0.00 73 1054.1
20260903011702 82 183 1.0 2.0 0.00 0.00 0.00 73 1016.5
20260903011302 82 149 1.0 2.0 0.00 0.00 0.00 72 1054.3
20260903011202 82 211 2.0 2.0 0.00 0.00 0.00 72 1016.4
20260903010758 82 239 1.0 1.0 0.00 0.00 0.00 72 1054.2
20260903010702 82 210 1.0 3.0 0.00 0.00 0.00 72 1016.3
20260903010254 82 200 2.0 2.0 0.00 0.00 0.00 72 1054.0
20260903010202 82 200 2.0 3.0 0.00 0.00 0.00 72 1016.5
20260903005752 82 208 1.0 2.0 0.00 0.00 0.00 72 1054.1
20260903005702 82 196 1.0 2.0 0.00 0.00 0.00 72 1016.2
20260903005247 82 248 1.0 2.0 0.00 0.00 0.00 72 1054.0
20260903005202 83 203 1.0 2.0 0.00 0.00 0.00 72 1016.4
20260903004743 83 176 1.0 1.0 0.00 0.00 0.00 71 1054.0
20260903004702 83 166 1.0 3.0 0.00 0.00 0.00 71 1016.3
20260903004238 83 192 2.0 2.0 0.00 0.00 0.00 71 1054.0
20260903004202 83 194 1.0 3.0 0.00 0.00 0.00 71 1016.0
20260903003734 83 175 0.0 0.0 0.00 0.00 0.00 71 1054.0
20260903003703 83 194 0.0 5.0 0.00 0.00 0.00 71 1016.0
20260903003229 83 232 2.0 3.0 0.00 0.00 0.00 70 1053.9
20260903003202 83 195 2.0 5.0 0.00 0.00 0.00 70 1015.9
20260903002723 84 186 1.0 2.0 0.00 0.00 0.00 70 1053.8
20260903002702 84 220 2.0 5.0 0.00 0.00 0.00 70 1015.8
20260903002217 84 197 0.0 1.0 0.00 0.00 0.00 69 1053.8
20260903002203 84 229 2.0 5.0 0.00 0.00 0.00 69 1016.1
20260903001713 84 191 0.0 0.0 0.00 0.00 0.00 69 1053.6
20260903001212 84 184 0.0 0.0 0.00 0.00 0.00 68 1053.7
20260903001202 84 177 1.0 5.0 0.00 0.00 0.00 68 1016.0
20260903000708 84 219 0.0 1.0 0.00 0.00 0.00 67 1054.0
20260903000702 84 214 2.0 5.0 0.00 0.00 0.00 67 1016.2
20260903000207 85 208 2.0 2.0 0.00 0.00 0.00 67 1053.7
20260903000204 85 215 2.0 5.0 0.00 0.00 0.00 67 1016.1
20260902235706 85 180 0.0 1.0 0.00 0.00 0.00 67 1053.8
20260902235703 85 191 1.0 2.0 0.00 0.00 0.00 67 1016.1
20260902235203 85 210 1.0 3.0 0.00 0.00 0.00 66 1016.1
20260902235201 85 196 1.0 2.0 0.00 0.00 0.00 66 1053.9
20260902234702 85 199 1.0 5.0 0.00 0.00 0.00 66 1016.2
20260902234203 86 202 2.0 3.0 0.00 0.00 0.00 65 1016.0
20260902234159 86 202 3.0 3.0 0.00 0.00 0.00 65 1053.7
20260902233703 86 219 3.0 6.0 0.00 0.00 0.00 65 1016.1
20260902233654 86 204 1.0 1.0 0.00 0.00 0.00 65 1053.7
20260902233203 86 206 3.0 5.0 0.00 0.00 0.00 64 1016.0
20260902233154 86 197 3.0 5.0 0.00 0.00 0.00 64 1053.7
20260902232703 87 199 3.0 5.0 0.00 0.00 0.00 63 1015.8
20260902232653 87 162 3.0 3.0 0.00 0.00 0.00 63 1053.6
20260902232202 87 203 2.0 6.0 0.00 0.00 0.00 63 1016.0
20260902232153 87 210 3.0 3.0 0.00 0.00 0.00 63 1053.8
20260902231702 87 228 2.0 7.0 0.00 0.00 0.00 63 1015.9
20260902231647 87 237 2.0 2.0 0.00 0.00 0.00 63 1053.8
20260902231203 87 280 3.0 7.0 0.00 0.00 0.00 63 1016.0
20260902231142 87 292 4.0 7.0 0.00 0.00 0.00 63 1053.8
20260902230702 88 229 3.0 5.0 0.00 0.00 0.00 63 1015.9
20260902230637 88 227 4.0 5.0 0.00 0.00 0.00 63 1053.6
20260902230202 88 194 2.0 8.0 0.00 0.00 0.00 63 1015.8
20260902230136 88 198 3.0 3.0 0.00 0.00 0.00 63 1053.5
20260902225702 88 245 3.0 8.0 0.00 0.00 0.00 62 1016.0
20260902225631 88 253 7.0 8.0 0.00 0.00 0.00 62 1053.8
20260902225202 89 201 2.0 6.0 0.00 0.00 0.00 62 1015.9
20260902225131 89 194 3.0 3.0 0.00 0.00 0.00 62 1053.8
20260902224629 89 224 2.0 3.0 0.00 0.00 0.00 61 1053.8
20260902224203 90 216 2.0 5.0 0.00 0.00 0.00 60 1016.0
20260902224125 90 205 3.0 5.0 0.00 0.00 0.00 60 1053.9
20260902223703 90 244 4.0 7.0 0.00 0.00 0.00 60 1016.0
20260902223621 90 250 4.0 5.0 0.00 0.00 0.00 60 1053.8
20260902223202 90 279 3.0 8.0 0.00 0.00 0.00 59 1016.1
20260902223120 90 237 3.0 3.0 0.00 0.00 0.00 59 1053.8
20260902222702 91 204 2.0 5.0 0.00 0.00 0.00 59 1015.9
20260902222619 91 160 0.0 0.0 0.00 0.00 0.00 59 1053.6
20260902222202 91 226 3.0 5.0 0.00 0.00 0.00 59 1016.1
20260902222119 91 250 2.0 5.0 0.00 0.00 0.00 59 1053.7
20260902221703 91 210 4.0 7.0 0.00 0.00 0.00 58 1016.0
20260902221613 91 221 4.0 7.0 0.00 0.00 0.00 58 1053.8
20260902221203 91 185 5.0 8.0 0.00 0.00 0.00 58 1016.1
20260902221108 91 171 5.0 8.0 0.00 0.00 0.00 58 1053.8
20260902220703 91 222 4.0 7.0 0.00 0.00 0.00 58 1016.0
20260902220604 91 216 4.0 5.0 0.00 0.00 0.00 59 1053.8
20260902220203 92 205 2.0 7.0 0.00 0.00 0.00 59 1016.0
20260902220058 92 206 1.0 2.0 0.00 0.00 0.00 59 1053.7
20260902215703 91 220 4.0 8.0 0.00 0.00 0.00 60 1016.1
20260902215554 91 231 2.0 2.0 0.00 0.00 0.00 60 1053.9
20260902215202 92 229 2.0 5.0 0.00 0.00 0.00 59 1015.9
20260902215050 92 246 3.0 3.0 0.00 0.00 0.00 59 1053.8
20260902214703 91 206 3.0 6.0 0.00 0.00 0.00 60 1016.1
20260902214549 91 219 5.0 6.0 0.00 0.00 0.00 60 1053.9
20260902214203 90 226 2.0 6.0 0.00 0.00 0.00 60 1016.2
20260902214049 90 252 3.0 5.0 0.00 0.00 0.00 60 1054.0
20260902213703 90 188 3.0 9.0 0.00 0.00 0.00 60 1016.2
20260902213544 90 175 4.0 8.0 0.00 0.00 0.00 59 1053.9
20260902213203 91 228 2.0 7.0 0.00 0.00 0.00 59 1015.9
20260902213044 91 248 2.0 2.0 0.00 0.00 0.00 59 1053.7
20260902212703 90 207 3.0 7.0 0.00 0.00 0.00 59 1016.1
20260902212539 90 238 4.0 7.0 0.00 0.00 0.00 60 1054.1
20260902212203 91 219 2.0 5.0 0.00 0.00 0.00 59 1016.2
20260902212035 91 229 3.0 5.0 0.00 0.00 0.00 59 1053.9
20260902211703 91 224 3.0 7.0 0.00 0.00 0.00 59 1016.3
20260902211532 92 207 4.0 7.0 0.00 0.00 0.00 58 1054.0
20260902211203 91 277 3.0 6.0 0.00 0.00 0.00 58 1016.2
20260902211026 91 286 3.0 5.0 0.00 0.00 0.00 58 1053.8
20260902210703 92 243 2.0 5.0 0.00 0.00 0.00 57 1016.5
20260902210526 92 210 1.0 2.0 0.00 0.00 0.00 57 1054.3
20260902210203 92 237 4.0 9.0 0.00 0.00 0.00 56 1016.4
20260902210026 92 265 4.0 6.0 0.00 0.00 0.00 56 1054.1
20260902205520 92 262 4.0 5.0 0.00 0.00 0.00 55 1054.2
20260902205203 93 214 5.0 10.0 0.00 0.00 0.00 54 1016.5
20260902205016 93 228 5.0 6.0 0.00 0.00 0.00 54 1054.2
20260902204703 92 211 3.0 8.0 0.00 0.00 0.00 55 1016.6
20260902204515 92 196 2.0 3.0 0.00 0.00 0.00 55 1054.3
20260902204203 93 179 6.0 9.0 0.00 0.00 0.00 55 1016.6
20260902204010 93 236 6.0 9.0 0.00 0.00 0.00 54 1054.4
20260902203703 93 204 2.0 10.0 0.00 0.00 0.00 55 1016.6
20260902203506 93 216 2.0 2.0 0.00 0.00 0.00 55 1054.6
20260902203203 93 223 4.0 10.0 0.00 0.00 0.00 54 1016.8
20260902203004 93 88 3.0 3.0 0.00 0.00 0.00 54 1054.5
20260902202703 92 184 3.0 7.0 0.00 0.00 0.00 55 1016.7
20260902202501 91 183 6.0 7.0 0.00 0.00 0.00 56 1054.4
20260902202203 92 201 7.0 13.0 0.00 0.00 0.00 56 1016.7
20260902201957 93 308 8.0 10.0 0.00 0.00 0.00 55 1054.6
20260902201703 93 217 3.0 5.0 0.00 0.00 0.00 55 1016.8
20260902201457 93 211 0.0 0.0 0.00 0.00 0.00 55 1054.4
20260902201203 93 206 6.0 9.0 0.00 0.00 0.00 55 1016.9
20260902200952 93 198 3.0 6.0 0.00 0.00 0.00 56 1054.6
20260902200702 92 190 5.0 10.0 0.00 0.00 0.00 56 1016.9
20260902200447 93 233 7.0 9.0 0.00 0.00 0.00 56 1054.7
20260902200203 93 213 3.0 7.0 0.00 0.00 0.00 56 1017.0
20260902195942 93 317 2.0 2.0 0.00 0.00 0.00 57 1054.6
20260902195703 93 178 5.0 10.0 0.00 0.00 0.00 56 1017.0
20260902195438 93 194 8.0 10.0 0.00 0.00 0.00 56 1054.7
20260902195203 92 218 4.0 12.0 0.00 0.00 0.00 56 1017.0
20260902194937 92 239 5.0 7.0 0.00 0.00 0.00 56 1054.7
20260902194437 93 192 4.0 6.0 0.00 0.00 0.00 55 1054.7
20260902194203 92 242 6.0 13.0 0.00 0.00 0.00 57 1017.1
20260902193932 92 345 5.0 11.0 0.00 0.00 0.00 57 1055.1
20260902193703 92 237 3.0 8.0 0.00 0.00 0.00 56 1017.0
20260902193428 92 253 3.0 3.0 0.00 0.00 0.00 56 1054.7
20260902193203 92 213 4.0 12.0 0.00 0.00 0.00 57 1017.0
20260902192927 92 142 4.0 7.0 0.00 0.00 0.00 57 1054.9
20260902192703 93 249 5.0 12.0 0.00 0.00 0.00 57 1017.2
20260902192426 93 167 5.0 8.0 0.00 0.00 0.00 56 1054.9
20260902191924 93 197 3.0 5.0 0.00 0.00 0.00 57 1055.1
20260902191420 92 223 3.0 3.0 0.00 0.00 0.00 57 1055.1
20260902190915 92 202 3.0 6.0 0.00 0.00 0.00 57 1055.2
20260902190703 92 208 2.0 12.0 0.00 0.00 0.00 59 1017.4
20260902190411 92 186 9.0 11.0 0.00 0.00 0.00 58 1055.3
20260902190203 92 224 5.0 7.0 0.00 0.00 0.00 58 1017.3
20260902185906 92 215 2.0 5.0 0.00 0.00 0.00 58 1055.3
20260902185702 92 240 3.0 13.0 0.00 0.00 0.00 58 1017.5
20260902185402 92 229 11.0 13.0 0.00 0.00 0.00 58 1055.1
20260902185203 92 203 5.0 13.0 0.00 0.00 0.00 59 1017.5
20260902184857 91 240 6.0 8.0 0.00 0.00 0.00 59 1055.2
20260902184706 92 209 5.0 9.0 0.00 0.00 0.00 60 1017.4
20260902184352 92 257 4.0 5.0 0.00 0.00 0.00 60 1055.2
20260902184203 91 228 3.0 17.0 0.00 0.00 0.00 60 1017.4
20260902183848 92 203 11.0 17.0 0.00 0.00 0.00 60 1055.5
20260902183702 92 184 6.0 9.0 0.00 0.00 0.00 60 1017.6
20260902183344 92 322 3.0 3.0 0.00 0.00 0.00 61 1055.4
20260902183203 91 214 7.0 13.0 0.00 0.00 0.00 62 1017.6
20260902182840 92 264 8.0 13.0 0.00 0.00 0.00 62 1055.4
20260902182703 92 231 5.0 10.0 0.00 0.00 0.00 61 1017.5
20260902182336 92 203 5.0 10.0 0.00 0.00 0.00 61 1055.6
20260902182203 91 176 6.0 10.0 0.00 0.00 0.00 62 1017.6
20260902181832 91 240 5.0 8.0 0.00 0.00 0.00 62 1055.5
20260902181328 91 211 5.0 11.0 0.00 0.00 0.00 63 1055.5
20260902181203 91 220 7.0 17.0 0.00 0.00 0.00 63 1017.7
20260902180827 91 191 6.0 7.0 0.00 0.00 0.00 63 1055.5
20260902180703 91 217 5.0 14.0 0.00 0.00 0.00 63 1018.0
20260902180323 91 213 9.0 14.0 0.00 0.00 0.00 63 1055.6
20260902180203 91 220 2.0 8.0 0.00 0.00 0.00 63 1017.9
20260902175818 91 219 3.0 5.0 0.00 0.00 0.00 63 1055.7
20260902175703 91 222 3.0 8.0 0.00 0.00 0.00 63 1017.9
20260902175313 91 211 3.0 3.0 0.00 0.00 0.00 63 1055.7
20260902175203 91 206 5.0 10.0 0.00 0.00 0.00 62 1018.0
20260902174809 91 191 5.0 7.0 0.00 0.00 0.00 63 1055.7
20260902174703 91 223 3.0 15.0 0.00 0.00 0.00 62 1017.9
20260902174306 91 194 5.0 7.0 0.00 0.00 0.00 62 1055.8
20260902174202 91 224 6.0 12.0 0.00 0.00 0.00 63 1017.9
20260902173801 91 205 4.0 6.0 0.00 0.00 0.00 63 1055.7
20260902173703 91 220 3.0 10.0 0.00 0.00 0.00 63 1018.1
20260902173301 91 234 3.0 3.0 0.00 0.00 0.00 63 1055.8
20260902172755 90 186 1.0 2.0 0.00 0.00 0.00 64 1056.2
20260902172702 90 182 3.0 7.0 0.00 0.00 0.00 64 1018.5
20260902172255 90 191 1.0 1.0 0.00 0.00 0.00 65 1056.3
20260902172203 90 215 5.0 15.0 0.00 0.00 0.00 64 1018.4
20260902171750 90 210 2.0 2.0 0.00 0.00 0.00 64 1056.1
20260902171703 90 212 3.0 8.0 0.00 0.00 0.00 63 1018.6
20260902171245 89 186 4.0 5.0 0.00 0.00 0.00 65 1056.3
20260902171203 89 217 5.0 12.0 0.00 0.00 0.00 64 1018.8
20260902170742 89 221 10.0 11.0 0.00 0.00 0.00 65 1056.4
20260902170703 90 208 6.0 13.0 0.00 0.00 0.00 66 1018.7
20260902170237 90 211 5.0 7.0 0.00 0.00 0.00 64 1056.3
20260902170203 89 236 3.0 12.0 0.00 0.00 0.00 64 1018.6
20260902165732 88 210 5.0 8.0 0.00 0.00 0.00 66 1056.3
20260902165226 88 217 10.0 13.0 0.00 0.00 0.00 65 1056.3
20260902165202 88 212 8.0 15.0 0.00 0.00 0.00 65 1018.5
20260902164721 89 232 5.0 8.0 0.00 0.00 0.00 65 1056.3
20260902164703 89 228 5.0 12.0 0.00 0.00 0.00 64 1018.6
20260902164221 90 226 2.0 3.0 0.00 0.00 0.00 63 1056.2
20260902163716 89 209 3.0 3.0 0.00 0.00 0.00 65 1056.5
20260902163704 89 215 4.0 13.0 0.00 0.00 0.00 64 1018.5
20260902163215 88 216 3.0 5.0 0.00 0.00 0.00 67 1056.2
20260902163204 88 229 3.0 6.0 0.00 0.00 0.00 65 1018.6
20260902162714 88 235 3.0 3.0 0.00 0.00 0.00 66 1056.4
20260902162704 88 205 3.0 7.0 0.00 0.00 0.00 67 1018.7
20260902162209 88 172 3.0 3.0 0.00 0.00 0.00 67 1056.8
20260902162203 88 181 2.0 6.0 0.00 0.00 0.00 67 1018.8
20260902161704 87 185 5.0 10.0 0.00 0.00 0.00 67 1018.7
20260902161159 87 263 7.0 10.0 0.00 0.00 0.00 67 1056.4
20260902160704 87 284 4.0 10.0 0.00 0.00 0.00 68 1018.7
20260902160656 87 302 7.0 10.0 0.00 0.00 0.00 68 1056.5
20260902160150 88 191 5.0 7.0 0.00 0.00 0.00 66 1056.4
20260902155703 87 206 2.0 3.0 0.00 0.00 0.00 67 1018.6
20260902155649 87 219 2.0 3.0 0.00 0.00 0.00 67 1056.3
20260902155204 86 204 3.0 15.0 0.00 0.00 0.00 69 1018.7
20260902155148 86 197 0.0 1.0 0.00 0.00 0.00 69 1056.5
20260902154703 86 218 6.0 15.0 0.00 0.00 0.00 68 1018.6
20260902154643 86 219 12.0 15.0 0.00 0.00 0.00 68 1056.3
20260902154204 87 177 6.0 12.0 0.00 0.00 0.00 67 1018.6
20260902154143 87 167 8.0 11.0 0.00 0.00 0.00 67 1056.4
20260902153704 86 225 5.0 13.0 0.00 0.00 0.00 69 1018.7
20260902153643 86 229 5.0 7.0 0.00 0.00 0.00 69 1056.5
20260902153204 86 222 5.0 13.0 0.00 0.00 0.00 67 1018.6
20260902153137 87 225 9.0 13.0 0.00 0.00 0.00 67 1056.3
20260902152704 86 235 3.0 9.0 0.00 0.00 0.00 67 1018.7
20260902152634 86 249 0.0 1.0 0.00 0.00 0.00 67 1056.4
20260902152203 86 241 2.0 7.0 0.00 0.00 0.00 68 1018.6
20260902152129 86 249 2.0 7.0 0.00 0.00 0.00 68 1056.3
20260902151704 85 198 3.0 5.0 0.00 0.00 0.00 69 1018.5
20260902151624 85 187 4.0 5.0 0.00 0.00 0.00 69 1056.3
20260902151204 85 220 3.0 9.0 0.00 0.00 0.00 69 1018.6
20260902151119 85 200 3.0 5.0 0.00 0.00 0.00 69 1056.4
20260902150704 84 196 2.0 5.0 0.00 0.00 0.00 70 1018.8
20260902150615 84 196 3.0 5.0 0.00 0.00 0.00 70 1056.7
20260902150204 84 243 2.0 6.0 0.00 0.00 0.00 71 1018.7
20260902150110 84 245 3.0 5.0 0.00 0.00 0.00 71 1056.4
20260902145704 84 200 3.0 6.0 0.00 0.00 0.00 71 1018.7
20260902145610 84 234 2.0 2.0 0.00 0.00 0.00 71 1056.5
20260902145109 84 209 1.0 1.0 0.00 0.00 0.00 71 1056.3
20260902144704 84 178 3.0 6.0 0.00 0.00 0.00 72 1018.6
20260902144606 84 198 3.0 5.0 0.00 0.00 0.00 72 1056.4
20260902144204 84 195 2.0 3.0 0.00 0.00 0.00 72 1018.6
20260902144106 84 197 1.0 3.0 0.00 0.00 0.00 71 1056.3
20260902143601 83 205 2.0 5.0 0.00 0.00 0.00 73 1056.4
20260902143203 83 184 2.0 6.0 0.00 0.00 0.00 73 1018.7
20260902143057 83 177 2.0 2.0 0.00 0.00 0.00 73 1056.5
20260902142705 83 166 1.0 3.0 0.00 0.00 0.00 73 1018.4
20260902142552 83 195 1.0 2.0 0.00 0.00 0.00 73 1056.2
20260902142048 82 147 3.0 5.0 0.00 0.00 0.00 74 1056.2
20260902141703 82 219 3.0 6.0 0.00 0.00 0.00 75 1018.4
20260902141548 82 217 3.0 3.0 0.00 0.00 0.00 75 1056.2
20260902141204 82 201 4.0 6.0 0.00 0.00 0.00 75 1018.3
20260902141043 82 215 5.0 6.0 0.00 0.00 0.00 75 1056.1
20260902140704 82 211 2.0 5.0 0.00 0.00 0.00 75 1018.4
20260902140543 82 201 2.0 5.0 0.00 0.00 0.00 75 1056.3
20260902140203 81 195 2.0 6.0 0.00 0.00 0.00 75 1018.4
20260902140039 81 219 3.0 5.0 0.00 0.00 0.00 75 1056.2
20260902135703 81 251 2.0 6.0 0.00 0.00 0.00 76 1018.4
20260902135539 81 200 1.0 1.0 0.00 0.00 0.00 77 1056.3
20260902135204 80 239 3.0 8.0 0.00 0.00 0.00 77 1018.2
20260902135039 80 250 4.0 5.0 0.00 0.00 0.00 78 1055.9
20260902134535 80 207 3.0 3.0 0.00 0.00 0.00 78 1056.0
20260902134035 80 205 3.0 5.0 0.00 0.00 0.00 78 1056.1
20260902133704 79 200 5.0 8.0 0.00 0.00 0.00 79 1018.5
20260902133530 79 212 5.0 7.0 0.00 0.00 0.00 79 1056.3
20260902133030 79 173 6.0 8.0 0.00 0.00 0.00 80 1056.2
20260902132704 78 207 3.0 6.0 0.00 0.00 0.00 81 1018.4
20260902132525 78 206 4.0 6.0 0.00 0.00 0.00 81 1056.3
20260902132204 78 240 3.0 7.0 0.00 0.00 0.00 82 1018.5
20260902132020 78 250 5.0 7.0 0.00 0.00 0.00 82 1056.4
20260902131703 78 213 5.0 8.0 0.00 0.00 0.00 82 1018.6
20260902131517 78 209 5.0 8.0 0.00 0.00 0.00 83 1056.4
20260902131203 77 201 1.0 6.0 0.00 0.00 0.00 83 1018.4
20260902131016 77 209 1.0 2.0 0.00 0.00 0.00 83 1056.2
20260902130704 77 209 2.0 8.0 0.00 0.00 0.00 84 1018.8
20260902130512 77 197 2.0 3.0 0.00 0.00 0.00 84 1056.3
20260902130008 76 198 2.0 3.0 0.00 0.00 0.00 84 1056.2
20260902125703 76 201 1.0 3.0 0.00 0.00 0.00 84 1018.5
20260902125503 76 187 3.0 3.0 0.00 0.00 0.00 84 1056.5
20260902125204 76 196 1.0 5.0 0.00 0.00 0.00 84 1018.6
20260902124958 76 187 1.0 2.0 0.00 0.00 0.00 85 1056.4
20260902124703 76 181 1.0 5.0 0.00 0.00 0.00 85 1018.5
20260902124455 76 162 2.0 3.0 0.00 0.00 0.00 85 1056.3
20260902124203 76 203 3.0 7.0 0.00 0.00 0.00 85 1018.5
20260902123949 76 227 4.0 5.0 0.00 0.00 0.00 85 1056.0
20260902123704 75 200 3.0 7.0 0.00 0.00 0.00 85 1018.4
20260902123446 75 177 3.0 5.0 0.00 0.00 0.00 85 1056.2
20260902123203 76 189 2.0 5.0 0.00 0.00 0.00 85 1018.3
20260902122944 76 189 3.0 5.0 0.00 0.00 0.00 85 1056.1
20260902122703 76 220 6.0 13.0 0.00 0.00 0.00 84 1018.3
20260902122440 76 212 0.0 1.0 0.00 0.00 0.00 84 1056.1
20260902122203 76 212 3.0 7.0 0.00 0.00 0.00 84 1018.4
20260902121935 76 204 5.0 7.0 0.00 0.00 0.00 84 1056.1
20260902121703 76 186 2.0 3.0 0.00 0.00 0.00 85 1018.4
20260902121435 76 188 1.0 2.0 0.00 0.00 0.00 85 1056.1
20260902120930 75 208 3.0 3.0 0.00 0.00 0.00 85 1056.2
20260902120703 75 206 1.0 3.0 0.00 0.00 0.00 85 1018.4
20260902120427 75 195 1.0 2.0 0.00 0.00 0.00 86 1056.2
20260902120203 75 244 3.0 7.0 0.00 0.00 0.00 85 1018.2
20260902115926 75 191 1.0 2.0 0.00 0.00 0.00 86 1056.1
20260902115704 75 211 3.0 7.0 0.00 0.00 0.00 85 1018.3
20260902115422 75 237 5.0 7.0 0.00 0.00 0.00 85 1056.2
20260902115203 75 202 1.0 5.0 0.00 0.00 0.00 86 1018.1
20260902114919 75 205 1.0 2.0 0.00 0.00 0.00 86 1056.1
20260902114414 75 195 1.0 2.0 0.00 0.00 0.00 86 1056.0
20260902114204 75 224 3.0 5.0 0.00 0.00 0.00 86 1018.1
20260902113909 75 189 1.0 1.0 0.00 0.00 0.00 86 1055.8
20260902113703 74 198 1.0 3.0 0.00 0.00 0.00 86 1018.1
20260902113405 75 156 0.0 0.0 0.00 0.00 0.00 86 1056.0
20260902113204 74 201 1.0 5.0 0.00 0.00 0.00 86 1018.2
20260902112904 74 224 3.0 5.0 0.00 0.00 0.00 86 1055.7
20260902112703 74 187 1.0 5.0 0.00 0.00 0.00 86 1018.0
20260902112401 74 207 2.0 5.0 0.00 0.00 0.00 86 1055.9
20260902112203 74 222 2.0 3.0 0.00 0.00 0.00 87 1018.0
20260902111856 74 196 1.0 2.0 0.00 0.00 0.00 87 1055.7
20260902111352 74 190 3.0 3.0 0.00 0.00 0.00 87 1055.7
20260902110848 74 201 0.0 0.0 0.00 0.00 0.00 87 1055.6
20260902110704 74 190 1.0 2.0 0.00 0.00 0.00 87 1017.9
20260902110343 74 193 0.0 0.0 0.00 0.00 0.00 87 1055.4
20260902110203 74 226 0.0 1.0 0.00 0.00 0.00 87 1017.7
20260902105843 74 206 1.0 1.0 0.00 0.00 0.00 87 1055.5
20260902105703 74 202 1.0 2.0 0.00 0.00 0.00 87 1017.9
20260902105338 74 209 1.0 1.0 0.00 0.00 0.00 87 1055.5
20260902104833 74 196 0.0 0.0 0.00 0.00 0.00 87 1055.3
20260902104703 74 198 0.0 1.0 0.00 0.00 0.00 86 1017.8
20260902104330 75 200 0.0 0.0 0.00 0.00 0.00 86 1055.4
20260902104204 75 202 1.0 3.0 0.00 0.00 0.00 86 1017.9
20260902103829 75 200 0.0 0.0 0.00 0.00 0.00 86 1055.5
20260902103703 75 210 1.0 3.0 0.00 0.00 0.00 86 1017.7
20260902103324 75 173 0.0 1.0 0.00 0.00 0.00 86 1055.6
20260902103204 75 194 2.0 3.0 0.00 0.00 0.00 86 1017.7
20260902102819 75 174 1.0 1.0 0.00 0.00 0.00 86 1055.2
20260902102704 75 200 0.0 2.0 0.00 0.00 0.00 86 1017.7
20260902102318 75 201 0.0 1.0 0.00 0.00 0.00 86 1055.5
20260902101813 75 198 0.0 1.0 0.00 0.00 0.00 86 1055.2
20260902101704 75 219 1.0 2.0 0.00 0.00 0.00 86 1017.6
20260902101307 75 231 0.0 1.0 0.00 0.00 0.00 86 1055.4
20260902101203 75 196 2.0 5.0 0.00 0.00 0.00 86 1017.6
20260902100807 75 185 1.0 1.0 0.00 0.00 0.00 86 1055.4
20260902100703 75 199 1.0 2.0 0.00 0.00 0.00 86 1017.7
20260902100306 75 211 0.0 0.0 0.00 0.00 0.00 86 1055.3
20260902095801 75 194 2.0 3.0 0.00 0.00 0.00 86 1055.5
20260902095703 75 170 1.0 2.0 0.00 0.00 0.00 86 1017.7
20260902095301 75 199 2.0 2.0 0.00 0.00 0.00 86 1055.3
20260902095203 75 172 1.0 5.0 0.00 0.00 0.00 86 1017.6
20260902094756 75 193 2.0 5.0 0.00 0.00 0.00 86 1055.3
20260902094703 75 202 1.0 2.0 0.00 0.00 0.00 86 1017.5
20260902094253 75 223 1.0 1.0 0.00 0.00 0.00 86 1055.3
20260902093752 75 191 0.0 0.0 0.00 0.00 0.00 86 1055.4
20260902093247 75 198 2.0 3.0 0.00 0.00 0.00 87 1055.6
20260902093203 75 204 1.0 2.0 0.00 0.00 0.00 87 1017.7
20260902092746 75 188 0.0 1.0 0.00 0.00 0.00 87 1055.4
20260902092242 75 211 1.0 1.0 0.00 0.00 0.00 87 1055.5
20260902092203 75 208 0.0 1.0 0.00 0.00 0.00 87 1017.6
20260902091741 75 197 0.0 0.0 0.00 0.00 0.00 87 1055.6
20260902091704 75 203 1.0 2.0 0.00 0.00 0.00 87 1017.8
20260902091238 75 211 1.0 1.0 0.00 0.00 0.00 87 1055.4
20260902091204 75 198 0.0 0.0 0.00 0.00 0.00 87 1017.9
20260902090734 75 196 0.0 0.0 0.00 0.00 0.00 86 1055.5
20260902090703 75 195 0.0 2.0 0.00 0.00 0.00 86 1017.7
20260902090233 75 190 0.0 1.0 0.00 0.00 0.00 86 1055.4
20260902090203 75 215 2.0 2.0 0.00 0.00 0.00 86 1017.7
20260902085727 75 200 1.0 1.0 0.00 0.00 0.00 87 1055.7
20260902085222 75 194 0.0 0.0 0.00 0.00 0.00 86 1055.5
20260902084719 75 191 0.0 0.0 0.00 0.00 0.00 87 1055.6
20260902084215 75 167 0.0 1.0 0.00 0.00 0.00 87 1055.4
20260902083714 75 185 1.0 1.0 0.00 0.00 0.00 87 1055.4
20260902083214 75 193 0.0 1.0 0.00 0.00 0.00 87 1055.4
20260902082710 75 181 1.0 1.0 0.00 0.00 0.00 87 1055.4
20260902082206 75 204 1.0 1.0 0.00 0.00 0.00 88 1055.2
20260902081702 74 201 0.0 1.0 0.00 0.00 0.00 88 1055.3
20260902081157 74 193 0.0 1.0 0.00 0.00 0.00 88 1055.5
20260902080652 74 176 0.0 1.0 0.00 0.00 0.00 88 1055.7
20260902080149 74 191 1.0 1.0 0.00 0.00 0.00 88 1055.4
20260902075648 74 204 1.0 1.0 0.00 0.00 0.00 88 1055.4
20260902075144 74 194 0.0 0.0 0.00 0.00 0.00 88 1055.3
20260902074639 74 194 0.0 0.0 0.00 0.00 0.00 88 1055.5
20260902074135 74 194 0.0 0.0 0.00 0.00 0.00 88 1055.2
20260902073630 74 183 1.0 1.0 0.00 0.00 0.00 88 1055.2
20260902073126 75 194 0.0 0.0 0.00 0.00 0.00 87 1055.3
20260902072622 75 173 1.0 1.0 0.00 0.00 0.00 87 1055.5
20260902072118 75 198 0.0 0.0 0.00 0.00 0.00 87 1055.3
20260902071613 75 182 0.0 0.0 0.00 0.00 0.00 87 1055.1
20260902071109 75 184 0.0 0.0 0.00 0.00 0.00 87 1055.3
20260902070604 75 192 0.0 0.0 0.00 0.00 0.00 87 1055.3
20260902070059 75 193 0.0 1.0 0.00 0.00 0.00 87 1055.2
20260902065558 75 204 0.0 1.0 0.00 0.00 0.00 86 1055.1
20260902065054 75 196 0.0 0.0 0.00 0.00 0.00 87 1055.1
20260902064550 75 168 0.0 0.0 0.00 0.00 0.00 87 1055.4
20260902064045 75 197 0.0 0.0 0.00 0.00 0.00 87 1055.4
20260902063545 75 230 2.0 2.0 0.00 0.00 0.00 87 1055.4
20260902063040 75 204 1.0 1.0 0.00 0.00 0.00 87 1055.5
20260902062538 75 176 0.0 0.0 0.00 0.00 0.00 87 1055.4
20260902062034 75 191 0.0 0.0 0.00 0.00 0.00 87 1055.2
20260902061534 75 192 0.0 0.0 0.00 0.00 0.00 87 1055.3
20260902061030 75 188 1.0 2.0 0.00 0.00 0.00 87 1055.4
20260902060526 75 197 0.0 0.0 0.00 0.00 0.00 87 1055.4
20260902060022 76 184 0.0 0.0 0.00 0.00 0.00 87 1055.4
20260902055518 76 202 1.0 2.0 0.00 0.00 0.00 86 1055.6
20260902055013 76 196 0.0 0.0 0.00 0.00 0.00 86 1055.7
20260902054513 76 199 0.0 1.0 0.00 0.00 0.00 86 1055.4
20260902054009 76 189 0.0 0.0 0.00 0.00 0.00 87 1055.4
20260902053504 76 189 0.0 0.0 0.00 0.00 0.00 87 1055.3
20260902053004 76 190 0.0 1.0 0.00 0.00 0.00 87 1055.3
20260902052458 76 195 0.0 0.0 0.00 0.00 0.00 87 1055.2
20260902051954 76 196 0.0 0.0 0.00 0.00 0.00 88 1055.2